Weather in Bendigo

Australia     36°45′12″S   144°16′47″E
temp.,
°C
wind,
m/s
gust,
m/s
humid.,
%
clouds,
%
prec.,
mm/h
press.,
hPa
HPBL,
m
8 march, mon
mon823:00+21wnw372974 0.0 1009263
02:00+20nw3833100 0.0 1009307
05:00+20w41143100 0.0 1008445
08:00+17sse1268100 0.4 100982
11:00+17nw1274100 0.9 1011203
14:00+25w135289 1.5 1010880
17:00+18sw367594 1.8 1009404
20:00+16ssw277878 0.0 1011330
9 march, tue
tue923:00+15s268879 0.1 1014268
02:00+12s29900 0.0 1014303
05:00+12ssw24940 0.0 1014112
08:00+12ssw38870 0.0 1016328
11:00+19s35510 0.0 1017829
14:00+25sw34280 0.0 10161757
17:00+25sw56290 0.0 10151735
20:00+18sse37550 0.0 1017360
10 march, wed
wed1023:00+13sse411740 0.0 1019451
02:00+11s310840 0.0 1019394
05:00+10s27920 0.0 1019201
08:00+11s27880 0.0 1020287
11:00+21ese34440 0.0 1020751
14:00+29ese12237 0.0 10181536
17:00+29e112048 0.0 10162063
20:00+21se3641100 0.0 1017172
11 march, thu
thu1123:00+15sse366388 0.0 1018155
02:00+14se236867 0.0 101761
05:00+13sse126775 0.0 101726
08:00+14ese125966 0.0 101844
11:00+24ese223263 0.0 1018549
14:00+32ne121844 0.0 10162148
17:00+30nw112060 0.0 10142789
20:00+23sw123031 0.0 101525
12 march, fri
fri1223:00+18se375632 0.0 1017177
02:00+18ese395370 0.0 1017242
05:00+17e376685 0.0 1016175
08:00+17e3878100 0.0 1017250
11:00+25ne344855 0.0 1016803
14:00+30n342985 0.0 10142367
17:00+29n243092 0.0 10122408
20:00+24nne124088 0.0 101224